Location: Huesca
(42.1318°N, 0.4078°W)
Time: 22:07:41
(UTC+02:00)

ACS3 Solar Sail - Pass Details

Date: 18 June 2024
Orbit: 992 x 1023 km, 97.4° (Epoch: 12 July)

Event Time Altitude Azimuth Distance (km) Brightness Sun altitude
Exits shadow 22:41:49 12° 131° (SE) 2,632 6.4 -9.7°
Maximum altitude 22:47:03 37° 68° (ENE) 1,504 5.6 -10.4°
Drops below altitude 10° 22:52:40 10° 4° (N) 2,769 7.8 -11.1°
Sets 22:55:19 0° 356° (N) 3,720 8.7 -11.4°
